STARLINK-36229, 68114

Orbit data source: Space-Track

STARLINK-36229, 68114 is a payload satellite owned by SpaceX/Seattle (US) in SSO that was launched on Sun, 08 Mar 2026 UTC via an FALCON 9 launch vehicle from the Air Force Western Test Range (AFWTR). Payload-class satellites include a variety of spacecraft equipped with specific instruments for various scientific and technological missions. These include communications satellites like Starlink; space stations such as the ISS; scientific satellites like the Hubble; Earth observation satellites from companies like Planet Labs, Umbra, and HawkEye 360; GPS; miniature CubeSats for education and research; and military/defense satellites.

Loading next visibility...
Identifier
68114, 2026-044P
Orbit
SSO
Country
Flag of USUS
Related business
Manufacturer
SpaceX/Seattle
Mission
Operational spacecraft
Bus & Motor
STARLINK V2MO, Unknown motor
Mass
575 kg wet, ~530 kg dry
Launch date (UTC)
2026-03-08 (2 months ago)
Launch vehicle
FALCON 9
Launch site
Air Force Western Test Range (AFWTR)
Object type
Payload
Rocket body
Debris
Shape & HBR
Unknown shape, 17.7 m
Radar Cross Section
RCS unknown

Expand to show TLE details & history
Last TLE update: 14 hours ago

TLE from 14 hours ago
0 STARLINK-36229
1 68114U 26044P   26131.85455107  .00009269  00000-0  28904-3 0  9996
2 68114  97.2847  92.6762 0001707  97.2624 262.8813 15.33448963 11262
Epoch: 2026-05-11T20:30Z
TLE epoch observation values (Epoch: 2026-05-11T20:30:33.212Z)
Latitude
-0°
Longitude
-84.59949°
Altitude
468.788 km
Speed
7.632 km/s
True Right ascension
06h 10m 42s
True Declination
0° 00' 00"
Sunlit
Object was in daylight at epoch
Visualization orbit readout
Latitude
Unknown
Longitude
Unknown
Altitude
Unknown
Speed
Unknown
Apparent Right ascension
Unknown
Apparent Declination
Unknown
Sunlit
N/A
Visualization observer readout
Local Sidereal Time
18:25:22
Azimuth
Unknown
Elevation
Unknown
Doppler factor
Unknown
Orbital elements
Apogee altitude
463.642 km
Perigee altitude
461.306 km
Semi-major axis
6,840.611 km
Eccentricity
0.00017
Inclination
97.2847°
RAAN
92.6762°
Arg. of periapsis
97.2624°
True anomaly
262.86189°
Mean anomaly
262.8813°
Eccentric anomaly
262.8716°
Mean motion
3.8362 °/min
Orbital period
93.84 mins
BSTAR
0.00028904
Loading maneuver chart data...
Computing Atmospheric mass density...
Loading historical data...
Loading historical data...
Loading historical data...
Loading historical data...
Loading historical data...
Loading historical data...
Loading historical data...

Documentation

Showing up to 5 results
|